Regional Weather Roundup
Issued by NWS

Home | Current Version | Previous Version | Text Only | Print | Product List | Glossary On
Versions: 1 2 3 4 5 6 7 8 9 10 11 12 13 14 15 16 17 18 19 20 21 22 23 24 25 26 27 28 29 30 31 32 33 34 35 36 37 38 39 40 41 42 43 44 45 46 47 48 49 50
000
ASUS45 KREV 280110
RWRNV
NEVADA REGIONAL WEATHER ROUNDUP
NATIONAL WEATHER SERVICE RENO NV
600 PM PDT MON JUL 27 2015

NOTE: "FAIR" INDICATES FEW OR NO CLOUDS BELOW 12,000 FEET WITH NO
SIGNIFICANT WEATHER AND/OR OBSTRUCTIONS TO VISIBILITY.

NVZ001-003-004-280200-
WESTERN NEVADA

CITY           SKY/WX    TMP DP  RH WIND       PRES   REMARKS
RENO           MOSUNNY   83  32  16 N14       30.05S
CARSON CITY    FAIR      82  25  12 SW5       30.06S
MINDEN         FAIR      82  23  11 NW14      30.06R
SLIDE MTN        N/A     57  32  38 SE3         N/A
PYRAMID LAKE     N/A     79 N/A N/A CALM        N/A
FALLON         MOSUNNY   84  23  10 NE9       30.04F
LOVELOCK       SUNNY     82  23  11 N7        30.06F
HAWTHORNE      SUNNY     84  28  13 W16       30.03S
$$

NVZ002-CAZ072-073-280200-
NORTHERN AND CENTRAL SIERRA

CITY           SKY/WX    TMP DP  RH WIND       PRES   REMARKS
S. LAKE TAHOE  SUNNY     76  28  17 NE13G18   30.16S
TRUCKEE        MOSUNNY   75  28  17 NW3       30.14F
SQUAW VLY 8000   N/A     63  28  27 NW3         N/A
SUSANVILLE     SUNNY     82  25  12 W6        30.07S
BLUE CANYON    MOSUNNY   73  40  30 VRB5      30.15S
MAMMOTH LAKES  FAIR      77  30  18 NW15      30.17S
BRIDGEPORT     FAIR      76  15  10 W5        30.15S
$$

NVZ030-031-036-280200-
NORTHERN NEVADA

CITY           SKY/WX    TMP DP  RH WIND       PRES   REMARKS
ELKO           SUNNY     75  19  12 W13       30.12S
WINNEMUCCA     SUNNY     76  28  17 N13       30.11S
WENDOVER       SUNNY     79  32  18 NW20G28   30.04S
$$

NVZ035-037-280200-
CENTRAL NEVADA

CITY           SKY/WX    TMP DP  RH WIND       PRES   REMARKS
ELY            SUNNY     76  21  12 VRB3      30.12F
EUREKA           N/A     76  22  13 N10       30.13S
$$

NVZ013-014-280200-
SOUTH CENTRAL NEVADA

CITY           SKY/WX    TMP DP  RH WIND       PRES   REMARKS
TONOPAH        SUNNY     82  16   8 NW18G25   30.07F
$$

NVZ017-020-022-280200-
SOUTHERN NEVADA

CITY           SKY/WX    TMP DP  RH WIND       PRES   REMARKS
LAS VEGAS      SUNNY    102  18   5 VRB6      29.72F
N. LAS VEGAS   SUNNY    100  24   6 SE10      29.76F
NELLIS AFB     SUNNY    101  27   7 VRB5      29.72F
HENDERSON      SUNNY    100  25   7 SW12G21   29.80F
MERCURY        SUNNY     94   6   4 W8G17     29.86F
$$


USA.gov is the U.S. government's official web portal to all federal, state and local government web resources and services.